TimeAKST,TemperatureF,Dew PointF,Humidity,Sea Level PressureIn,VisibilityMPH,Wind Direction,Wind SpeedMPH,Gust SpeedMPH,PrecipitationIn,Events,Conditions,WindDirDegrees,DateUTC
12:16 AM,-0.4,-9.4,66,29.35,10.0,East,11.5,-,N/A,,Partly Cloudy,90,2013-02-24 09:16:00
12:36 AM,-0.4,-7.6,72,29.36,10.0,East,10.4,-,N/A,,Clear,90,2013-02-24 09:36:00
12:56 AM,-2.2,-7.6,78,29.36,10.0,East,10.4,-,N/A,,Clear,80,2013-02-24 09:56:00
1:16 AM,-2.2,-9.4,71,29.37,10.0,East,9.2,-,N/A,,Clear,80,2013-02-24 10:16:00
1:36 AM,-2.2,-7.6,78,29.37,10.0,East,9.2,-,N/A,,Clear,80,2013-02-24 10:36:00
1:56 AM,-2.2,-9.4,71,29.38,10.0,East,10.4,-,N/A,,Clear,90,2013-02-24 10:56:00
2:16 AM,-2.2,-9.4,71,29.39,10.0,East,9.2,-,N/A,,Clear,80,2013-02-24 11:16:00
2:36 AM,-2.2,-9.4,71,29.39,10.0,East,10.4,-,N/A,,Clear,80,2013-02-24 11:36:00
2:56 AM,-2.2,-9.4,71,29.40,10.0,East,10.4,-,N/A,,Clear,80,2013-02-24 11:56:00
3:16 AM,-2.2,-9.4,71,29.40,10.0,East,9.2,-,N/A,,Partly Cloudy,80,2013-02-24 12:16:00
3:36 AM,-2.2,-7.6,78,29.41,10.0,ENE,10.4,-,N/A,,Clear,70,2013-02-24 12:36:00
3:56 AM,-2.2,-11.2,66,29.41,10.0,East,8.1,-,N/A,,Partly Cloudy,80,2013-02-24 12:56:00
4:16 AM,-2.2,-7.6,78,29.41,10.0,East,10.4,-,N/A,,Clear,80,2013-02-24 13:16:00
4:36 AM,-2.2,-11.2,66,29.42,10.0,ENE,10.4,-,N/A,,Clear,70,2013-02-24 13:36:00
4:56 AM,-4.0,-11.2,71,29.42,10.0,East,8.1,-,N/A,,Partly Cloudy,90,2013-02-24 13:56:00
5:16 AM,-4.0,-9.4,78,29.43,10.0,East,10.4,-,N/A,,Mostly Cloudy,80,2013-02-24 14:16:00
5:36 AM,-5.8,-13.0,71,29.43,10.0,East,6.9,-,N/A,,Mostly Cloudy,90,2013-02-24 14:36:00
5:56 AM,-5.8,-11.2,77,29.44,10.0,East,5.8,-,N/A,,Mostly Cloudy,100,2013-02-24 14:56:00
6:16 AM,-5.8,-11.2,77,29.45,10.0,ESE,6.9,-,N/A,,Overcast,110,2013-02-24 15:16:00
6:36 AM,-4.0,-9.4,78,29.46,10.0,ESE,5.8,-,N/A,,Overcast,120,2013-02-24 15:36:00
6:56 AM,-4.0,-11.2,71,29.47,10.0,East,3.5,-,N/A,,Overcast,80,2013-02-24 15:56:00
7:16 AM,-4.0,-14.8,60,29.47,10.0,SE,3.5,-,N/A,,Overcast,140,2013-02-24 16:16:00
7:36 AM,-2.2,-5.8,85,29.48,10.0,ESE,6.9,-,N/A,,Overcast,120,2013-02-24 16:36:00
7:56 AM,-2.2,-14.8,55,29.49,10.0,East,5.8,-,N/A,,Overcast,100,2013-02-24 16:56:00
8:16 AM,-2.2,-5.8,85,29.49,10.0,ESE,4.6,-,N/A,,Overcast,110,2013-02-24 17:16:00
8:36 AM,-2.2,-9.4,71,29.50,10.0,ESE,5.8,-,N/A,,Overcast,110,2013-02-24 17:36:00
8:56 AM,-2.2,-7.6,78,29.50,10.0,East,5.8,-,N/A,,Overcast,90,2013-02-24 17:56:00
9:16 AM,-2.2,-7.6,78,29.50,10.0,East,5.8,-,N/A,,Overcast,100,2013-02-24 18:16:00
9:36 AM,-0.4,-7.6,72,29.51,10.0,ESE,5.8,-,N/A,,Overcast,110,2013-02-24 18:36:00
9:56 AM,-0.4,-5.8,78,29.52,10.0,SE,4.6,-,N/A,,Overcast,130,2013-02-24 18:56:00
10:16 AM,-0.4,-5.8,78,29.53,10.0,East,5.8,-,N/A,,Overcast,100,2013-02-24 19:16:00
10:36 AM,-0.4,-5.8,78,29.54,10.0,East,4.6,-,N/A,,Overcast,100,2013-02-24 19:36:00
10:56 AM,-0.4,-5.8,78,29.55,10.0,ESE,4.6,-,N/A,,Overcast,110,2013-02-24 19:56:00
11:16 AM,-0.4,-5.8,78,29.56,10.0,ESE,4.6,-,N/A,,Overcast,110,2013-02-24 20:16:00
11:36 AM,-0.4,-5.8,78,29.57,10.0,ESE,5.8,-,N/A,,Overcast,110,2013-02-24 20:36:00
11:56 AM,1.4,-5.8,72,29.57,10.0,East,6.9,-,N/A,,Overcast,90,2013-02-24 20:56:00
12:16 PM,1.4,-2.2,85,29.58,10.0,East,5.8,-,N/A,,Overcast,90,2013-02-24 21:16:00
12:36 PM,3.2,-2.2,78,29.59,10.0,East,5.8,-,N/A,,Overcast,90,2013-02-24 21:36:00
12:56 PM,3.2,-4.0,72,29.59,10.0,ESE,5.8,-,N/A,,Overcast,110,2013-02-24 21:56:00
1:16 PM,3.2,-2.2,78,29.60,10.0,ESE,5.8,-,N/A,,Overcast,110,2013-02-24 22:16:00
1:36 PM,3.2,-2.2,78,29.60,10.0,East,5.8,-,N/A,,Overcast,100,2013-02-24 22:36:00
1:56 PM,3.2,-2.2,78,29.60,10.0,ESE,5.8,-,N/A,,Overcast,110,2013-02-24 22:56:00
2:16 PM,3.2,-2.2,78,29.61,10.0,ESE,4.6,-,N/A,,Overcast,110,2013-02-24 23:16:00
2:36 PM,3.2,-2.2,78,29.61,10.0,Calm,Calm,-,N/A,,Overcast,0,2013-02-24 23:36:00
2:56 PM,3.2,-2.2,78,29.62,10.0,Calm,Calm,-,N/A,,Overcast,0,2013-02-24 23:56:00
3:16 PM,3.2,-0.4,85,29.63,10.0,West,3.5,-,N/A,,Overcast,270,2013-02-25 00:16:00
3:36 PM,3.2,-2.2,78,29.64,10.0,West,3.5,-,N/A,,Overcast,280,2013-02-25 00:36:00
3:56 PM,3.2,1.4,92,29.64,4.0,WNW,8.1,-,N/A,,Overcast,290,2013-02-25 00:56:00
4:16 PM,3.2,-2.2,78,29.64,7.0,WNW,9.2,-,N/A,,Overcast,300,2013-02-25 01:16:00
4:36 PM,3.2,-0.4,85,29.65,10.0,WNW,8.1,-,N/A,,Overcast,300,2013-02-25 01:36:00
4:56 PM,3.2,-0.4,85,29.65,10.0,NW,6.9,-,N/A,,Overcast,310,2013-02-25 01:56:00
5:16 PM,3.2,-2.2,78,29.65,10.0,WNW,6.9,-,N/A,,Overcast,290,2013-02-25 02:16:00
5:36 PM,3.2,-0.4,85,29.66,5.0,WNW,4.6,-,N/A,,Overcast,300,2013-02-25 02:36:00
5:56 PM,3.2,-0.4,85,29.66,10.0,WNW,6.9,-,N/A,,Overcast,300,2013-02-25 02:56:00
6:16 PM,3.2,-2.2,78,29.67,10.0,WNW,6.9,-,N/A,,Overcast,290,2013-02-25 03:16:00
6:36 PM,3.2,-2.2,78,29.67,10.0,WNW,5.8,-,N/A,,Overcast,290,2013-02-25 03:36:00
6:56 PM,3.2,-0.4,85,29.68,10.0,WNW,5.8,-,N/A,,Overcast,290,2013-02-25 03:56:00
7:16 PM,3.2,-2.2,78,29.69,10.0,WNW,5.8,-,N/A,,Overcast,300,2013-02-25 04:16:00
7:36 PM,3.2,-2.2,78,29.69,10.0,NW,4.6,-,N/A,,Overcast,310,2013-02-25 04:36:00
7:56 PM,1.4,-2.2,85,29.69,5.0,North,3.5,-,N/A,,Overcast,360,2013-02-25 04:56:00
8:16 PM,1.4,-0.4,92,29.69,4.0,Calm,Calm,-,N/A,,Overcast,0,2013-02-25 05:16:00
8:36 PM,1.4,-2.2,85,29.70,5.0,ENE,3.5,-,N/A,,Overcast,70,2013-02-25 05:36:00
8:56 PM,1.4,-2.2,85,29.69,6.0,ENE,3.5,-,N/A,,Overcast,70,2013-02-25 05:56:00
9:16 PM,-0.4,-2.2,92,29.70,5.0,SSE,3.5,-,N/A,,Overcast,160,2013-02-25 06:16:00
9:36 PM,-0.4,-5.8,78,29.70,8.0,ENE,4.6,-,N/A,,Overcast,70,2013-02-25 06:36:00
9:56 PM,-0.4,-2.2,92,29.71,10.0,Calm,Calm,-,N/A,,Overcast,0,2013-02-25 06:56:00
10:16 PM,-0.4,-5.8,78,29.71,10.0,ENE,3.5,-,N/A,,Overcast,70,2013-02-25 07:16:00
10:36 PM,1.4,1.4,100,29.73,3.0,SW,12.7,16.1,N/A,,Overcast,220,2013-02-25 07:36:00
10:56 PM,1.4,-7.6,66,29.73,3.0,SW,12.7,-,N/A,,Overcast,220,2013-02-25 07:56:00
11:16 PM,-0.4,-5.8,78,29.73,9.0,SW,12.7,-,N/A,,Overcast,220,2013-02-25 08:16:00
11:36 PM,-0.4,-0.4,100,29.74,6.0,SW,12.7,-,N/A,,Overcast,220,2013-02-25 08:36:00
11:56 PM,-0.4,-7.6,72,29.74,4.0,SW,11.5,-,N/A,,Overcast,220,2013-02-25 08:56:00